Weather History for Dunkirk, NY

Change the Weather History Date:

Monday, February 11, 2013

  Actual Average Record
Temperature  
Mean Temperature 42 °F -  
Max Temperature 52 °F 33 °F 73 °F (1932)
Min Temperature 33 °F 16 °F -16 °F (1979)
Degree Days  
Heating Degree Days 22    
Moisture  
Dew Point 31 °F    
Average Humidity 73    
Maximum Humidity 87    
Minimum Humidity 37    
Precipitation  
Precipitation 0.06 in - - ()
Sea Level Pressure  
Sea Level Pressure 29.74 in    
Wind  
Wind Speed 21 mph (SSW)    
Max Wind Speed 30 mph    
Max Gust Speed 43 mph    
Visibility 10 miles    
Events Rain , Snow    
Averages and records for this station are not official NWS values.
T = Trace of Precipitation, MM = Missing Value Source: NWS Daily Summary

Daily Weather History Graph

Daily Weather History Graph

Search for Another Location

Airport:

Trip Planner

Search our weather history database for the weather conditions in past years. The results will help you decide how hot, cold, wet, or windy it might be!

Date:

Astronomy

Feb. 11, 2013 Rise Set
Actual Time 7:18 AM EST 5:44 PM EST
Civil Twilight 6:49 AM EST 6:13 PM EST
Nautical Twilight 6:16 AM EST 6:46 PM EST
Astronomical Twilight 5:43 AM EST 7:19 PM EST
Moon 7:39 AM EST (2/11) 7:43 PM EST (2/11)
Length of Visible Light 11h 23m
Length of Day
10h 25m
Waxing Crescent, 3% of the Moon is Illuminated
Feb 11
Waxing Crescent
Feb 17
First Quarter
Feb 25
Full
Mar 4
Last Quarter
Mar 11
New

Hourly Weather History & Observations

Time (EST) Temp. Windchill Dew Point Humidity Pressure Visibility Wind Dir Wind Speed Gust Speed Precip Events Conditions
12:53 AM 44.1 °F 35.9 °F 19.0 °F 37% 29.85 in 10.0 mi SSE 19.6 mph 36.8 mph N/A   Overcast
1:53 AM 44.1 °F 35.0 °F 19.9 °F 38% 29.81 in 10.0 mi South 24.2 mph 35.7 mph 0.00 in Rain Light Rain
2:53 AM 39.9 °F 30.0 °F 26.1 °F 58% 29.81 in 10.0 mi South 21.9 mph 39.1 mph 0.00 in Rain Light Rain
3:53 AM 37.9 °F 27.1 °F 32.0 °F 79% 29.78 in 10.0 mi South 23.0 mph 36.8 mph 0.03 in   Overcast
4:53 AM 37.9 °F 27.1 °F 34.0 °F 86% 29.76 in 5.0 mi South 23.0 mph 38.0 mph 0.02 in Snow Light Snow
5:53 AM 39.9 °F 29.5 °F 34.0 °F 79% 29.74 in 10.0 mi South 24.2 mph 32.2 mph 0.00 in   Overcast
6:46 AM 39.2 °F 29.0 °F 35.6 °F 87% 29.71 in 10.0 mi South 21.9 mph 32.2 mph N/A   Overcast
6:53 AM 41.0 °F 31.4 °F 35.1 °F 79% 29.73 in 10.0 mi South 21.9 mph 32.2 mph N/A   Overcast
7:53 AM 42.1 °F 33.3 °F 37.0 °F 82% 29.72 in 10.0 mi South 19.6 mph 35.7 mph N/A   Overcast
8:21 AM 42.8 °F 35.4 °F 37.4 °F 81% 29.70 in 10.0 mi South 15.0 mph 26.5 mph N/A   Mostly Cloudy
8:53 AM 44.1 °F 37.7 °F 39.0 °F 82% 29.70 in 10.0 mi SSW 12.7 mph 18.4 mph N/A   Overcast
9:53 AM 46.9 °F - 39.9 °F 77% 29.67 in 10.0 mi South 17.3 mph 26.5 mph N/A   Partly Cloudy
10:53 AM 48.9 °F - 41.0 °F 74% 29.65 in 10.0 mi SSW 13.8 mph 21.9 mph N/A   Mostly Cloudy
11:53 AM 52.0 °F - 39.9 °F 63% 29.60 in 10.0 mi SSW 18.4 mph 27.6 mph N/A   Scattered Clouds
12:24 PM 39.2 °F 29.8 °F 35.6 °F 87% 29.65 in 6.0 mi WSW 18.4 mph 29.9 mph 0.01 in Rain Light Rain
12:48 PM 39.2 °F 30.2 °F 33.8 °F 81% 29.64 in 10.0 mi WSW 17.3 mph 28.8 mph 0.01 in   Overcast
12:53 PM 39.9 °F 30.8 °F 33.1 °F 77% 29.66 in 10.0 mi SW 18.4 mph 26.5 mph 0.01 in   Overcast
1:53 PM 37.9 °F 27.6 °F 30.0 °F 73% 29.68 in 10.0 mi WSW 20.7 mph 32.2 mph N/A   Overcast
2:53 PM 37.0 °F 25.6 °F 28.0 °F 70% 29.70 in 10.0 mi WSW 24.2 mph 36.8 mph 0.00 in   Overcast
3:53 PM 36.0 °F 25.6 °F 28.0 °F 73% 29.72 in 10.0 mi WSW 18.4 mph 29.9 mph N/A   Overcast
4:53 PM 35.1 °F 23.3 °F 27.0 °F 72% 29.75 in 10.0 mi WSW 23.0 mph 35.7 mph N/A   Overcast
5:53 PM 35.1 °F 23.3 °F 26.1 °F 70% 29.77 in 10.0 mi WSW 23.0 mph 33.4 mph N/A   Overcast
6:53 PM 35.1 °F 23.5 °F 26.1 °F 70% 29.79 in 9.0 mi WSW 21.9 mph 38.0 mph 0.00 in Snow Light Snow
7:53 PM 35.1 °F 22.2 °F 25.0 °F 67% 29.79 in 10.0 mi WSW 27.6 mph 42.6 mph 0.00 in Snow Light Snow
8:53 PM 35.1 °F 21.8 °F 26.1 °F 70% 29.79 in 10.0 mi WSW 29.9 mph 41.4 mph 0.00 in Snow Light Snow
9:53 PM 34.0 °F 22.1 °F 26.1 °F 73% 29.79 in 10.0 mi WSW 21.9 mph 34.5 mph 0.00 in   Overcast
10:53 PM 34.0 °F 21.3 °F 26.1 °F 73% 29.79 in 10.0 mi WSW 25.3 mph 41.4 mph 0.00 in   Overcast
11:09 PM 33.8 °F 21.0 °F 26.6 °F 75% 29.78 in 10.0 mi WSW 25.3 mph 39.1 mph N/A   Overcast
11:53 PM 33.1 °F 19.8 °F 27.0 °F 78% 29.81 in 10.0 mi WSW 26.5 mph 40.3 mph N/A   Overcast